User: anonymous   Login
Location: Unspecified
(0.0000°N, 0.0000°E)
Time: 02:46:27
(UTC+00:00)
Language:

Transit 2A - Orbit

View from above orbital plane
View from above orbital plane
View from above satellite
View from above satellite

Ground track
Ground track

The orbit data is extracted from the following two-line orbital elements,

1    45U 60007A   17147.39477917 -.00000013 +00000-0 +23601-4 0  9990
2    45 066.6950 084.3883 0250171 047.4818 314.7115 14.33551890905752
Epoch (UTC): 27 May 2017 09:28:28
Eccentricity: 0.0250171
inclination: 66.6950°
perigee height: 601 km
apogee height: 959 km
right ascension of ascending node: 84.3883°
argument of perigee: 47.4818°
revolutions per day: 14.33551890
mean anomaly at epoch: 314.7115°
orbit number at epoch: 90575

The dashed part of the orbit path shows where the satellite is in the earth's shadow,  

DLR